,,PA_Meas_PMT16A,,PR_Meas_QMR101_102,,RH_Meas_QMH101,,SR_Meas_QMS101,,TA_Meas_QMH101,,GenWind,,GenWind,
time,status,PA,status,PR,status,RH,status,SR,status,TA,status,DirAvg,status,SpdAvg,
2012-10-07, 00:00:04,VALID,919.183,VALID,0,VALID,96.7335,VALID,0,VALID,19.7433,VALID,12,VALID,0,
2012-10-07, 00:01:04,VALID,919.21,VALID,0,VALID,96.764,VALID,0,VALID,19.7433,VALID,12,VALID,0,
2012-10-07, 00:02:04,VALID,919.223,VALID,0,VALID,96.764,VALID,0,VALID,19.7433,VALID,12,VALID,0,
2012-10-07, 00:03:04,VALID,919.212,VALID,0,VALID,96.7869,VALID,0,VALID,19.7433,VALID,12,VALID,0,
2012-10-07, 00:04:04,VALID,919.216,VALID,0,VALID,96.8098,VALID,0,VALID,19.7433,VALID,12,VALID,0,
2012-10-07, 00:05:04,VALID,919.201,VALID,0,VALID,96.8098,VALID,0,VALID,19.7433,VALID,12,VALID,0,
2012-10-07, 00:06:04,VALID,919.162,VALID,0,VALID,96.825,VALID,0,VALID,19.7628,VALID,12,VALID,0,
2012-10-07, 00:07:04,VALID,919.155,VALID,0,VALID,96.8403,VALID,0,VALID,19.7823,VALID,12,VALID,0,
2012-10-07, 00:08:04,VALID,919.169,VALID,0,VALID,96.8555,VALID,0,VALID,19.8018,VALID,12,VALID,0,
2012-10-07, 00:09:04,VALID,919.151,VALID,0,VALID,96.8936,VALID,0,VALID,19.8018,VALID,12,VALID,0,
2012-10-07, 00:10:04,VALID,919.142,VALID,0,VALID,96.8784,VALID,0,VALID,19.8018,VALID,12,VALID,0,
2012-10-07, 00:11:04,VALID,919.16,VALID,0,VALID,96.8936,VALID,0,VALID,19.8408,VALID,12,VALID,0,
2012-10-07, 00:12:04,VALID,919.159,VALID,0,VALID,96.9241,VALID,0,VALID,19.8213,VALID,12,VALID,0,
2012-10-07, 00:13:04,VALID,919.18,VALID,0,VALID,96.9317,VALID,0,VALID,19.8423,VALID,12,VALID,0,
2012-10-07, 00:14:04,VALID,919.172,VALID,0,VALID,96.9241,VALID,0,VALID,19.8213,VALID,12,VALID,0,
2012-10-07, 00:15:04,VALID,919.178,VALID,0,VALID,96.9165,VALID,0,VALID,19.8408,VALID,12,VALID,0,
2012-10-07, 00:16:04,VALID,919.162,VALID,0,VALID,96.9317,VALID,0,VALID,19.8213,VALID,12,VALID,0,
2012-10-07, 00:17:04,VALID,919.164,VALID,0,VALID,96.9165,VALID,0,VALID,19.8423,VALID,12,VALID,0,
2012-10-07, 00:18:04,VALID,919.154,VALID,0,VALID,96.9165,VALID,0,VALID,19.8423,VALID,12,VALID,0,
2012-10-07, 00:19:04,VALID,919.183,VALID,0,VALID,96.9165,VALID,0,VALID,19.8213,VALID,12,VALID,0,
2012-10-07, 00:20:04,VALID,919.161,VALID,0,VALID,96.9165,VALID,0,VALID,19.8213,VALID,12,VALID,0,
2012-10-07, 00:21:04,VALID,919.147,VALID,0,VALID,96.9165,VALID,0,VALID,19.8018,VALID,12,VALID,0,
2012-10-07, 00:22:04,VALID,919.13,VALID,0,VALID,96.9241,VALID,0,VALID,19.8213,VALID,12,VALID,0,
2012-10-07, 00:23:04,VALID,919.103,VALID,0,VALID,96.9317,VALID,0,VALID,19.8018,VALID,12,VALID,0,
2012-10-07, 00:24:04,VALID,919.08,VALID,0,VALID,96.9165,VALID,0,VALID,19.8018,VALID,12,VALID,0,
2012-10-07, 00:25:05,VALID,919.036,VALID,0,VALID,96.9165,VALID,0,VALID,19.8018,VALID,12,VALID,0,
2012-10-07, 00:26:05,VALID,919.019,VALID,0,VALID,96.9394,VALID,0,VALID,19.8018,VALID,12,VALID,0,
2012-10-07, 00:27:05,VALID,918.969,VALID,0,VALID,96.9394,VALID,0,VALID,19.8018,VALID,12,VALID,0,
2012-10-07, 00:28:05,VALID,918.931,VALID,0,VALID,96.9394,VALID,0,VALID,19.8213,VALID,12,VALID,0,
2012-10-07, 00:29:05,VALID,918.935,VALID,0,VALID,96.9165,VALID,0,VALID,19.8018,VALID,12,VALID,0,
2012-10-07, 00:30:05,VALID,918.901,VALID,0,VALID,96.9317,VALID,0,VALID,19.7823,VALID,12,VALID,0,
2012-10-07, 00:31:05,VALID,918.899,VALID,0,VALID,96.9317,VALID,0,VALID,19.8033,VALID,12,VALID,0,
2012-10-07, 00:32:05,VALID,918.879,VALID,0,VALID,96.9317,VALID,0,VALID,19.8018,VALID,12,VALID,0,
2012-10-07, 00:33:05,VALID,918.872,VALID,0,VALID,96.9394,VALID,0,VALID,19.8018,VALID,12,VALID,0,
2012-10-07, 00:34:05,VALID,918.852,VALID,0,VALID,96.8936,VALID,0,VALID,19.7838,VALID,12,VALID,0,
2012-10-07, 00:35:05,VALID,918.863,VALID,0,VALID,96.9165,VALID,0,VALID,19.7823,VALID,12,VALID,0,
2012-10-07, 00:36:05,VALID,918.843,VALID,0,VALID,96.9089,VALID,0,VALID,19.7823,VALID,12,VALID,0,
2012-10-07, 00:37:05,VALID,918.843,VALID,0,VALID,96.9089,VALID,0,VALID,19.7823,VALID,12,VALID,0,
2012-10-07, 00:38:05,VALID,918.83,VALID,0,VALID,96.9012,VALID,0,VALID,19.7628,VALID,12,VALID,0,
2012-10-07, 00:39:05,VALID,918.814,VALID,0,VALID,96.886,VALID,0,VALID,19.7433,VALID,12,VALID,0,
2012-10-07, 00:40:05,VALID,918.811,VALID,0,VALID,96.886,VALID,0,VALID,19.7433,VALID,12,VALID,0,
2012-10-07, 00:41:05,VALID,918.804,VALID,0,VALID,96.8479,VALID,0,VALID,19.6848,VALID,12,VALID,0,
2012-10-07, 00:42:05,VALID,918.817,VALID,0,VALID,96.8555,VALID,0,VALID,19.6848,VALID,12,VALID,0,
2012-10-07, 00:43:05,VALID,918.795,VALID,0,VALID,96.8555,VALID,0,VALID,19.6653,VALID,12,VALID,0,
2012-10-07, 00:44:05,VALID,918.86,VALID,0,VALID,96.8098,VALID,0,VALID,19.6668,VALID,12,VALID,0,
2012-10-07, 00:45:05,VALID,918.809,VALID,0,VALID,96.7945,VALID,0,VALID,19.6068,VALID,12,VALID,0,
2012-10-07, 00:46:05,VALID,918.823,VALID,0,VALID,96.764,VALID,0,VALID,19.5483,VALID,12,VALID,0,
2012-10-07, 00:47:05,VALID,918.793,VALID,0,VALID,96.7107,VALID,0,VALID,19.5108,VALID,103,VALID,0,
2012-10-07, 00:48:05,VALID,918.793,VALID,0,VALID,96.6878,VALID,0,VALID,19.4327,VALID,102,VALID,0,
2012-10-07, 00:49:05,VALID,918.786,VALID,0,VALID,96.7259,VALID,0,VALID,19.3923,VALID,102,VALID,0,
2012-10-07, 00:50:05,VALID,918.794,VALID,0,VALID,96.7716,VALID,0,VALID,19.3923,VALID,137,VALID,0,
2012-10-07, 00:51:05,VALID,918.804,VALID,0,VALID,96.8021,VALID,0,VALID,19.3728,VALID,130,VALID,0,
2012-10-07, 00:52:05,VALID,918.764,VALID,0,VALID,96.8403,VALID,0,VALID,19.4132,VALID,130,VALID,0,
2012-10-07, 00:53:05,VALID,918.75,VALID,0,VALID,96.8784,VALID,0,VALID,19.3923,VALID,130,VALID,0,
2012-10-07, 00:54:05,VALID,918.762,VALID,0,VALID,96.8784,VALID,0,VALID,19.3742,VALID,130,VALID,0,
2012-10-07, 00:55:05,VALID,918.76,VALID,0,VALID,96.9089,VALID,0,VALID,19.3533,VALID,130,VALID,0,
2012-10-07, 00:56:05,VALID,918.776,VALID,0,VALID,96.9012,VALID,0,VALID,19.3533,VALID,130,VALID,0,
2012-10-07, 00:57:05,VALID,918.738,VALID,0,VALID,96.9317,VALID,0,VALID,19.3352,VALID,118,VALID,0,
2012-10-07, 00:58:05,VALID,918.729,VALID,0,VALID,96.947,VALID,0,VALID,19.3143,VALID,118,VALID,0,
2012-10-07, 00:59:05,VALID,918.75,VALID,0,VALID,96.9698,VALID,0,VALID,19.3338,VALID,118,VALID,0,
2012-10-07, 01:00:05,VALID,918.737,VALID,0,VALID,96.9775,VALID,0,VALID,19.3352,VALID,118,VALID,0,
2012-10-07, 01:01:05,VALID,918.704,VALID,0,VALID,97.0003,VALID,0,VALID,19.3338,VALID,118,VALID,0,
2012-10-07, 01:02:05,VALID,918.71,VALID,0,VALID,97.008,VALID,0,VALID,19.3157,VALID,118,VALID,0,
2012-10-07, 01:03:05,VALID,918.717,VALID,0,VALID,97.0003,VALID,0,VALID,19.3157,VALID,118,VALID,0,
2012-10-07, 01:04:05,VALID,918.733,VALID,0,VALID,97.008,VALID,0,VALID,19.2753,VALID,118,VALID,0,
2012-10-07, 01:05:05,VALID,918.685,VALID,0,VALID,97.0232,VALID,0,VALID,19.2962,VALID,118,VALID,0,
2012-10-07, 01:06:05,VALID,918.686,VALID,0,VALID,97.0385,VALID,0,VALID,19.2948,VALID,126,VALID,0,
2012-10-07, 01:07:05,VALID,918.699,VALID,0,VALID,97.0537,VALID,0,VALID,19.3157,VALID,129,VALID,0,
2012-10-07, 01:08:05,VALID,918.674,VALID,0,VALID,97.0613,VALID,0,VALID,19.3157,VALID,129,VALID,0,
2012-10-07, 01:09:05,VALID,918.669,VALID,0,VALID,97.0766,VALID,0,VALID,19.2767,VALID,129,VALID,0,
2012-10-07, 01:10:05,VALID,918.644,VALID,0,VALID,97.0613,VALID,0,VALID,19.2572,VALID,129,VALID,0,
2012-10-07, 01:11:05,VALID,918.671,VALID,0,VALID,97.069,VALID,0,VALID,19.2377,VALID,129,VALID,0,
2012-10-07, 01:12:05,VALID,918.646,VALID,0,VALID,97.0842,VALID,0,VALID,19.2572,VALID,118,VALID,0,
2012-10-07, 01:13:05,VALID,918.597,VALID,0,VALID,97.1147,VALID,0,VALID,19.1987,VALID,107,VALID,0,
2012-10-07, 01:14:05,VALID,918.603,VALID,0,VALID,97.0842,VALID,0,VALID,19.1583,VALID,107,VALID,0,
2012-10-07, 01:15:05,VALID,918.577,VALID,0,VALID,97.0994,VALID,0,VALID,19.1597,VALID,107,VALID,0,
2012-10-07, 01:16:05,VALID,918.576,VALID,0,VALID,97.1299,VALID,0,VALID,19.1792,VALID,115,VALID,0,
2012-10-07, 01:17:05,VALID,918.583,VALID,0,VALID,97.1223,VALID,0,VALID,19.1597,VALID,115,VALID,0,
2012-10-07, 01:18:05,VALID,918.602,VALID,0,VALID,97.1376,VALID,0,VALID,19.1583,VALID,115,VALID,0,
2012-10-07, 01:19:05,VALID,918.633,VALID,0,VALID,97.1604,VALID,0,VALID,19.1388,VALID,115,VALID,0,
2012-10-07, 01:20:05,VALID,918.639,VALID,0,VALID,97.1604,VALID,0,VALID,19.1778,VALID,115,VALID,0,
2012-10-07, 01:21:05,VALID,918.622,VALID,0,VALID,97.1833,VALID,0,VALID,19.2377,VALID,119,VALID,0,
2012-10-07, 01:22:05,VALID,918.62,VALID,0,VALID,97.1909,VALID,0,VALID,19.2182,VALID,130,VALID,0,
2012-10-07, 01:23:05,VALID,918.632,VALID,0,VALID,97.1909,VALID,0,VALID,19.2182,VALID,130,VALID,0,
2012-10-07, 01:24:05,VALID,918.577,VALID,0,VALID,97.1909,VALID,0,VALID,19.2377,VALID,105,VALID,0,
2012-10-07, 01:25:05,VALID,918.532,VALID,0,VALID,97.2062,VALID,0,VALID,19.2168,VALID,105,VALID,0,
2012-10-07, 01:26:05,VALID,918.522,VALID,0,VALID,97.229,VALID,0,VALID,19.2572,VALID,105,VALID,0,
2012-10-07, 01:27:05,VALID,918.476,VALID,0,VALID,97.2519,VALID,0,VALID,19.2572,VALID,105,VALID,0,
2012-10-07, 01:28:05,VALID,918.438,VALID,0,VALID,97.229,VALID,0,VALID,19.2572,VALID,105,VALID,0,
2012-10-07, 01:29:05,VALID,918.408,VALID,0,VALID,97.2367,VALID,0,VALID,19.2377,VALID,105,VALID,0,
2012-10-07, 01:30:05,VALID,918.391,VALID,0,VALID,97.229,VALID,0,VALID,19.2168,VALID,105,VALID,0,
2012-10-07, 01:31:05,VALID,918.363,VALID,0,VALID,97.229,VALID,0,VALID,19.1973,VALID,105,VALID,0,
2012-10-07, 01:32:05,VALID,918.351,VALID,0,VALID,97.2443,VALID,0,VALID,19.1583,VALID,105,VALID,0,
2012-10-07, 01:33:05,VALID,918.321,VALID,0,VALID,97.229,VALID,0,VALID,19.1388,VALID,105,VALID,0,
2012-10-07, 01:34:05,VALID,918.305,VALID,0,VALID,97.2214,VALID,0,VALID,19.1207,VALID,105,VALID,0,
2012-10-07, 01:35:05,VALID,918.295,VALID,0,VALID,97.2443,VALID,0,VALID,19.0803,VALID,105,VALID,0,
2012-10-07, 01:36:05,VALID,918.275,VALID,0,VALID,97.2519,VALID,0,VALID,19.1012,VALID,105,VALID,0,
2012-10-07, 01:37:05,VALID,918.263,VALID,0,VALID,97.2595,VALID,0,VALID,19.0608,VALID,105,VALID,0,
2012-10-07, 01:38:05,VALID,918.256,VALID,0,VALID,97.2748,VALID,0,VALID,19.0803,VALID,105,VALID,0,
2012-10-07, 01:39:05,VALID,918.231,VALID,0,VALID,97.2748,VALID,0,VALID,19.0817,VALID,105,VALID,0,
2012-10-07, 01:40:05,VALID,918.206,VALID,0,VALID,97.29,VALID,0,VALID,19.0998,VALID,105,VALID,0,
2012-10-07, 01:41:05,VALID,918.196,VALID,0,VALID,97.29,VALID,0,VALID,19.1193,VALID,105,VALID,0,
2012-10-07, 01:42:05,VALID,918.168,VALID,0,VALID,97.3053,VALID,0,VALID,19.0998,VALID,105,VALID,0,
2012-10-07, 01:43:05,VALID,918.17,VALID,0,VALID,97.3053,VALID,0,VALID,19.0998,VALID,105,VALID,0,
2012-10-07, 01:44:05,VALID,918.141,VALID,0,VALID,97.3129,VALID,0,VALID,19.1207,VALID,105,VALID,0,
2012-10-07, 01:45:05,VALID,918.128,VALID,0,VALID,97.3053,VALID,0,VALID,19.1012,VALID,105,VALID,0,
2012-10-07, 01:46:05,VALID,918.11,VALID,0,VALID,97.3129,VALID,0,VALID,19.1012,VALID,105,VALID,0,
2012-10-07, 01:47:05,VALID,918.135,VALID,0,VALID,97.29,VALID,0,VALID,19.1207,VALID,105,VALID,0,
2012-10-07, 01:48:05,VALID,918.111,VALID,0,VALID,97.3358,VALID,0,VALID,19.1193,VALID,105,VALID,0,
2012-10-07, 01:49:05,VALID,918.166,VALID,0,VALID,97.3358,VALID,0,VALID,19.1207,VALID,105,VALID,0,
2012-10-07, 01:50:05,VALID,918.16,VALID,0,VALID,97.3434,VALID,0,VALID,19.1207,VALID,105,VALID,0,
2012-10-07, 01:51:05,VALID,918.153,VALID,0,VALID,97.3129,VALID,0,VALID,19.0817,VALID,105,VALID,0,
2012-10-07, 01:52:05,VALID,918.164,VALID,0,VALID,97.3281,VALID,0,VALID,19.0608,VALID,105,VALID,0,
2012-10-07, 01:53:05,VALID,918.128,VALID,0,VALID,97.3281,VALID,0,VALID,19.0622,VALID,105,VALID,0,
2012-10-07, 01:54:05,VALID,918.165,VALID,0,VALID,97.351,VALID,0,VALID,19.0427,VALID,105,VALID,0,
2012-10-07, 01:55:05,VALID,918.119,VALID,0,VALID,97.3281,VALID,0,VALID,19.0608,VALID,105,VALID,0,
2012-10-07, 01:56:05,VALID,918.172,VALID,0,VALID,97.3739,VALID,0,VALID,19.0622,VALID,105,VALID,0,
2012-10-07, 01:57:05,VALID,918.174,VALID,0,VALID,97.3434,VALID,0,VALID,19.0218,VALID,105,VALID,0,
2012-10-07, 01:58:05,VALID,918.16,VALID,0,VALID,97.3586,VALID,0,VALID,19.0622,VALID,105,VALID,0,
2012-10-07, 01:59:05,VALID,918.153,VALID,0,VALID,97.3663,VALID,0,VALID,19.0622,VALID,105,VALID,0,
2012-10-07, 02:00:05,VALID,918.159,VALID,0,VALID,97.3739,VALID,0,VALID,19.0608,VALID,105,VALID,0,
2012-10-07, 02:01:05,VALID,918.171,VALID,0,VALID,97.3663,VALID,0,VALID,19.0817,VALID,105,VALID,0,
2012-10-07, 02:02:05,VALID,918.151,VALID,0,VALID,97.3739,VALID,0,VALID,19.0622,VALID,105,VALID,0,
2012-10-07, 02:03:05,VALID,918.19,VALID,0,VALID,97.3815,VALID,0,VALID,19.0817,VALID,105,VALID,0,
2012-10-07, 02:04:05,VALID,918.157,VALID,0,VALID,97.3739,VALID,0,VALID,19.0622,VALID,105,VALID,0,
2012-10-07, 02:05:05,VALID,918.148,VALID,0,VALID,97.4044,VALID,0,VALID,19.0817,VALID,105,VALID,0,
2012-10-07, 02:06:05,VALID,918.166,VALID,0,VALID,97.3968,VALID,0,VALID,19.0622,VALID,105,VALID,0,
2012-10-07, 02:07:05,VALID,918.131,VALID,0,VALID,97.3968,VALID,0,VALID,19.0232,VALID,105,VALID,0,
2012-10-07, 02:08:05,VALID,918.094,VALID,0,VALID,97.3968,VALID,0,VALID,18.9647,VALID,105,VALID,0,
2012-10-07, 02:09:05,VALID,918.134,VALID,0,VALID,97.3968,VALID,0,VALID,18.9438,VALID,105,VALID,0,
2012-10-07, 02:10:05,VALID,918.111,VALID,0,VALID,97.3968,VALID,0,VALID,18.9842,VALID,131,VALID,0,
2012-10-07, 02:11:05,VALID,918.086,VALID,0,VALID,97.3968,VALID,0,VALID,19.0232,VALID,147,VALID,0,
2012-10-07, 02:12:05,VALID,918.083,VALID,0,VALID,97.412,VALID,0,VALID,19.0232,VALID,148,VALID,0,
2012-10-07, 02:13:05,VALID,918.076,VALID,0,VALID,97.4044,VALID,0,VALID,19.0622,VALID,216,VALID,0,
2012-10-07, 02:14:05,VALID,918.084,VALID,0,VALID,97.4349,VALID,0,VALID,19.1012,VALID,212,VALID,0,
2012-10-07, 02:15:05,VALID,918.034,VALID,0,VALID,97.4273,VALID,0,VALID,19.1597,VALID,212,VALID,0,
2012-10-07, 02:16:05,VALID,918.012,VALID,0,VALID,97.4273,VALID,0,VALID,19.1402,VALID,212,VALID,0,
2012-10-07, 02:17:05,VALID,918.024,VALID,0,VALID,97.4196,VALID,0,VALID,19.1193,VALID,212,VALID,0,
2012-10-07, 02:18:05,VALID,917.973,VALID,0,VALID,97.4349,VALID,0,VALID,19.1402,VALID,212,VALID,0,
2012-10-07, 02:19:05,VALID,917.962,VALID,0,VALID,97.4425,VALID,0,VALID,19.1402,VALID,212,VALID,0,
2012-10-07, 02:20:05,VALID,917.944,VALID,0,VALID,97.4425,VALID,0,VALID,19.1012,VALID,212,VALID,0,
2012-10-07, 02:21:05,VALID,917.909,VALID,0,VALID,97.4501,VALID,0,VALID,19.0817,VALID,212,VALID,0,
2012-10-07, 02:22:05,VALID,917.908,VALID,0,VALID,97.4273,VALID,0.107441,VALID,19.0608,VALID,212,VALID,0,
2012-10-07, 02:23:05,VALID,917.903,VALID,0,VALID,97.4501,VALID,0.107441,VALID,19.0608,VALID,212,VALID,0,
2012-10-07, 02:24:05,VALID,917.924,VALID,0,VALID,97.4349,VALID,0,VALID,19.0413,VALID,212,VALID,0,
2012-10-07, 02:25:05,VALID,917.915,VALID,0,VALID,97.4577,VALID,0.107441,VALID,19.0608,VALID,212,VALID,0,
2012-10-07, 02:26:05,VALID,917.946,VALID,0,VALID,97.4577,VALID,0.107441,VALID,19.0803,VALID,212,VALID,0,
2012-10-07, 02:27:05,VALID,917.951,VALID,0,VALID,97.4501,VALID,0.107441,VALID,19.0608,VALID,198,VALID,0,
2012-10-07, 02:28:05,VALID,917.964,VALID,0,VALID,97.4577,VALID,0.107441,VALID,19.0608,VALID,198,VALID,0,
2012-10-07, 02:29:05,VALID,918,VALID,0,VALID,97.4577,VALID,0.107441,VALID,19.0608,VALID,198,VALID,0,
2012-10-07, 02:30:05,VALID,917.991,VALID,0,VALID,97.4577,VALID,0.107441,VALID,19.0803,VALID,198,VALID,0,
2012-10-07, 02:31:05,VALID,917.975,VALID,0,VALID,97.4577,VALID,0.107441,VALID,19.0998,VALID,198,VALID,0,
2012-10-07, 02:32:05,VALID,917.989,VALID,0,VALID,97.4806,VALID,0,VALID,19.0998,VALID,198,VALID,0,
2012-10-07, 02:33:05,VALID,917.963,VALID,0,VALID,97.4654,VALID,0.107441,VALID,19.1193,VALID,198,VALID,0,
2012-10-07, 02:34:05,VALID,917.949,VALID,0,VALID,97.4654,VALID,0.107441,VALID,19.1193,VALID,198,VALID,0,
2012-10-07, 02:35:05,VALID,917.928,VALID,0,VALID,97.4806,VALID,0,VALID,19.1193,VALID,198,VALID,0,
2012-10-07, 02:36:05,VALID,917.925,VALID,0,VALID,97.4654,VALID,0,VALID,19.1178,VALID,198,VALID,0,
2012-10-07, 02:37:05,VALID,917.904,VALID,0,VALID,97.4959,VALID,0,VALID,19.1193,VALID,198,VALID,0,
2012-10-07, 02:38:05,VALID,917.89,VALID,0,VALID,97.4882,VALID,0,VALID,19.1388,VALID,198,VALID,0,
2012-10-07, 02:39:05,VALID,917.879,VALID,0,VALID,97.4806,VALID,0,VALID,19.1402,VALID,198,VALID,0,
2012-10-07, 02:40:05,VALID,917.868,VALID,0,VALID,97.4959,VALID,0,VALID,19.1402,VALID,198,VALID,0,
2012-10-07, 02:41:05,VALID,917.833,VALID,0,VALID,97.5111,VALID,0,VALID,19.1207,VALID,198,VALID,0,
2012-10-07, 02:42:05,VALID,917.852,VALID,0,VALID,97.4806,VALID,0,VALID,19.1402,VALID,198,VALID,0,
2012-10-07, 02:43:05,VALID,917.806,VALID,0,VALID,97.4806,VALID,0,VALID,19.1402,VALID,198,VALID,0,
2012-10-07, 02:44:05,VALID,917.757,VALID,0,VALID,97.4806,VALID,0,VALID,19.1207,VALID,198,VALID,0,
2012-10-07, 02:45:05,VALID,917.77,VALID,0,VALID,97.4654,VALID,0,VALID,19.0427,VALID,198,VALID,0,
2012-10-07, 02:46:05,VALID,917.76,VALID,0,VALID,97.473,VALID,0,VALID,19.0037,VALID,198,VALID,0,
2012-10-07, 02:47:05,VALID,917.747,VALID,0,VALID,97.4882,VALID,0,VALID,18.9647,VALID,198,VALID,0,
2012-10-07, 02:48:05,VALID,917.741,VALID,0,VALID,97.4654,VALID,0,VALID,18.9647,VALID,198,VALID,0,
2012-10-07, 02:49:05,VALID,917.745,VALID,0,VALID,97.4882,VALID,0,VALID,18.9633,VALID,198,VALID,0,
2012-10-07, 02:50:05,VALID,917.729,VALID,0,VALID,97.4882,VALID,0,VALID,18.9842,VALID,198,VALID,0,
2012-10-07, 02:51:05,VALID,917.741,VALID,0,VALID,97.4882,VALID,0,VALID,19.0037,VALID,198,VALID,0,
2012-10-07, 02:52:05,VALID,917.711,VALID,0,VALID,97.5035,VALID,0,VALID,19.0608,VALID,198,VALID,0,
2012-10-07, 02:53:05,VALID,917.732,VALID,0,VALID,97.5035,VALID,0.107441,VALID,19.0608,VALID,198,VALID,0,
2012-10-07, 02:54:05,VALID,917.705,VALID,0,VALID,97.5035,VALID,0,VALID,19.0608,VALID,212,VALID,0,
2012-10-07, 02:55:05,VALID,917.715,VALID,0,VALID,97.5111,VALID,0,VALID,19.0413,VALID,231,VALID,0,
2012-10-07, 02:56:05,VALID,917.674,VALID,0,VALID,97.5111,VALID,0.107441,VALID,19.0608,VALID,231,VALID,0,
2012-10-07, 02:57:05,VALID,917.654,VALID,0,VALID,97.5111,VALID,0.107441,VALID,19.0803,VALID,231,VALID,0,
2012-10-07, 02:58:05,VALID,917.607,VALID,0,VALID,97.5187,VALID,0,VALID,19.0788,VALID,231,VALID,0,
2012-10-07, 02:59:05,VALID,917.575,VALID,0,VALID,97.5187,VALID,0.107441,VALID,19.0998,VALID,231,VALID,0,
2012-10-07, 03:00:05,VALID,917.564,VALID,0,VALID,97.5111,VALID,0.107441,VALID,19.0788,VALID,231,VALID,0,
2012-10-07, 03:01:05,VALID,917.545,VALID,0,VALID,97.4959,VALID,0.107441,VALID,19.1388,VALID,231,VALID,0,
2012-10-07, 03:02:05,VALID,917.549,VALID,0,VALID,97.5187,VALID,0,VALID,19.1388,VALID,231,VALID,0,
2012-10-07, 03:03:05,VALID,917.567,VALID,0,VALID,97.5035,VALID,0,VALID,19.0998,VALID,231,VALID,0,
2012-10-07, 03:04:05,VALID,917.578,VALID,0,VALID,97.5264,VALID,0.107441,VALID,19.1193,VALID,231,VALID,0,
2012-10-07, 03:05:05,VALID,917.543,VALID,0,VALID,97.5035,VALID,0,VALID,19.1193,VALID,231,VALID,0,
2012-10-07, 03:06:04,VALID,917.548,VALID,0,VALID,97.5111,VALID,0,VALID,19.0998,VALID,173,VALID,0,
2012-10-07, 03:07:04,VALID,917.53,VALID,0,VALID,97.5111,VALID,0,VALID,19.0998,VALID,173,VALID,0,
2012-10-07, 03:08:04,VALID,917.509,VALID,0,VALID,97.534,VALID,0,VALID,19.1207,VALID,173,VALID,0,
2012-10-07, 03:09:04,VALID,917.484,VALID,0,VALID,97.5111,VALID,0,VALID,19.1207,VALID,173,VALID,0,
2012-10-07, 03:10:04,VALID,917.442,VALID,0,VALID,97.534,VALID,0,VALID,19.0817,VALID,150,VALID,0,
2012-10-07, 03:11:04,VALID,917.478,VALID,0,VALID,97.5416,VALID,0,VALID,19.0427,VALID,105,VALID,0,
2012-10-07, 03:12:04,VALID,917.432,VALID,0,VALID,97.5264,VALID,0,VALID,19.0622,VALID,105,VALID,0,
2012-10-07, 03:13:04,VALID,917.412,VALID,0,VALID,97.5187,VALID,0,VALID,19.0427,VALID,106,VALID,0,
2012-10-07, 03:14:04,VALID,917.373,VALID,0,VALID,97.5111,VALID,0,VALID,19.0427,VALID,102,VALID,0,
2012-10-07, 03:15:04,VALID,917.386,VALID,0,VALID,97.5187,VALID,0,VALID,19.0037,VALID,118,VALID,0,
2012-10-07, 03:16:04,VALID,917.385,VALID,0,VALID,97.5492,VALID,0,VALID,19.0037,VALID,111,VALID,0,
2012-10-07, 03:17:04,VALID,917.415,VALID,0,VALID,97.5492,VALID,0,VALID,18.9842,VALID,91,VALID,0,
2012-10-07, 03:18:04,VALID,917.429,VALID,0,VALID,97.534,VALID,0,VALID,18.9842,VALID,116,VALID,0,
2012-10-07, 03:19:04,VALID,917.476,VALID,0,VALID,97.5492,VALID,0,VALID,18.9647,VALID,117,VALID,0,
2012-10-07, 03:20:04,VALID,917.506,VALID,0,VALID,97.534,VALID,0,VALID,18.9842,VALID,121,VALID,0,
2012-10-07, 03:21:04,VALID,917.546,VALID,0,VALID,97.5492,VALID,0,VALID,18.9842,VALID,129,VALID,0,
2012-10-07, 03:22:04,VALID,917.543,VALID,0,VALID,97.5492,VALID,0,VALID,19.0037,VALID,129,VALID,0,
2012-10-07, 03:23:04,VALID,917.585,VALID,0,VALID,97.5645,VALID,0,VALID,19.0427,VALID,120,VALID,0,
2012-10-07, 03:24:04,VALID,917.525,VALID,0,VALID,97.5645,VALID,0,VALID,19.0427,VALID,131,VALID,0,
2012-10-07, 03:25:04,VALID,917.548,VALID,0,VALID,97.5721,VALID,0,VALID,19.0232,VALID,137,VALID,0,
2012-10-07, 03:26:04,VALID,917.525,VALID,0,VALID,97.5645,VALID,0,VALID,19.0232,VALID,137,VALID,0,
2012-10-07, 03:27:04,VALID,917.498,VALID,0,VALID,97.5645,VALID,0,VALID,19.0232,VALID,137,VALID,0,
2012-10-07, 03:28:04,VALID,917.493,VALID,0,VALID,97.5569,VALID,0,VALID,19.0427,VALID,137,VALID,0,
2012-10-07, 03:29:04,VALID,917.487,VALID,0,VALID,97.5569,VALID,0,VALID,19.0232,VALID,137,VALID,0,
2012-10-07, 03:30:04,VALID,917.454,VALID,0,VALID,97.5645,VALID,0,VALID,19.0427,VALID,137,VALID,0,
2012-10-07, 03:31:04,VALID,917.469,VALID,0,VALID,97.5797,VALID,0,VALID,19.0023,VALID,137,VALID,0,
2012-10-07, 03:32:04,VALID,917.435,VALID,0,VALID,97.5645,VALID,0,VALID,19.0037,VALID,137,VALID,0,
2012-10-07, 03:33:04,VALID,917.423,VALID,0,VALID,97.5721,VALID,0,VALID,18.9647,VALID,137,VALID,0,
2012-10-07, 03:34:04,VALID,917.436,VALID,0,VALID,97.5721,VALID,0,VALID,18.9647,VALID,137,VALID,0,
2012-10-07, 03:35:04,VALID,917.44,VALID,0,VALID,97.5645,VALID,0,VALID,18.9257,VALID,137,VALID,0,
2012-10-07, 03:36:04,VALID,917.406,VALID,0,VALID,97.5721,VALID,0,VALID,18.9062,VALID,137,VALID,0,
2012-10-07, 03:37:04,VALID,917.406,VALID,0,VALID,97.5721,VALID,0,VALID,18.8867,VALID,137,VALID,0,
2012-10-07, 03:38:04,VALID,917.405,VALID,0,VALID,97.5797,VALID,0,VALID,18.8672,VALID,137,VALID,0,
2012-10-07, 03:39:04,VALID,917.406,VALID,0,VALID,97.5721,VALID,0,VALID,18.8867,VALID,137,VALID,0,
2012-10-07, 03:40:04,VALID,917.44,VALID,0,VALID,97.5721,VALID,0,VALID,18.9062,VALID,137,VALID,0,
2012-10-07, 03:41:04,VALID,917.444,VALID,0,VALID,97.5797,VALID,0,VALID,18.9062,VALID,137,VALID,0,
2012-10-07, 03:42:04,VALID,917.439,VALID,0,VALID,97.5873,VALID,0,VALID,18.8867,VALID,137,VALID,0,
2012-10-07, 03:43:04,VALID,917.432,VALID,0,VALID,97.5645,VALID,0,VALID,18.8282,VALID,137,VALID,0,
2012-10-07, 03:44:04,VALID,917.435,VALID,0,VALID,97.5873,VALID,0,VALID,18.7892,VALID,137,VALID,0,
2012-10-07, 03:45:04,VALID,917.426,VALID,0,VALID,97.595,VALID,0,VALID,18.7503,VALID,137,VALID,0,
2012-10-07, 03:46:04,VALID,917.415,VALID,0,VALID,97.5721,VALID,0,VALID,18.7113,VALID,137,VALID,0,
2012-10-07, 03:47:04,VALID,917.426,VALID,0,VALID,97.6102,VALID,0,VALID,18.6918,VALID,137,VALID,0,
2012-10-07, 03:48:04,VALID,917.437,VALID,0,VALID,97.595,VALID,0,VALID,18.6723,VALID,136,VALID,0,
2012-10-07, 03:49:04,VALID,917.448,VALID,0,VALID,97.5797,VALID,0,VALID,18.6723,VALID,124,VALID,0,
2012-10-07, 03:50:04,VALID,917.445,VALID,0,VALID,97.6102,VALID,0,VALID,18.6723,VALID,93,VALID,0,
2012-10-07, 03:51:04,VALID,917.452,VALID,0,VALID,97.595,VALID,0,VALID,18.6723,VALID,92,VALID,0,
2012-10-07, 03:52:04,VALID,917.431,VALID,0,VALID,97.6331,VALID,0.107441,VALID,18.6708,VALID,21,VALID,0,
2012-10-07, 03:53:04,VALID,917.398,VALID,0,VALID,97.6255,VALID,0,VALID,18.6513,VALID,21,VALID,0,
2012-10-07, 03:54:04,VALID,917.417,VALID,0,VALID,97.6331,VALID,0.107441,VALID,18.6513,VALID,36,VALID,0,
2012-10-07, 03:55:04,VALID,917.386,VALID,0,VALID,97.6255,VALID,0.107441,VALID,18.5914,VALID,15,VALID,0,
2012-10-07, 03:56:04,VALID,917.403,VALID,0,VALID,97.6331,VALID,0.107441,VALID,18.6124,VALID,19,VALID,0,
2012-10-07, 03:57:04,VALID,917.447,VALID,0,VALID,97.6483,VALID,0,VALID,18.6124,VALID,19,VALID,0,
2012-10-07, 03:58:04,VALID,917.463,VALID,0,VALID,97.6331,VALID,0,VALID,18.6124,VALID,19,VALID,0,
2012-10-07, 03:59:04,VALID,917.475,VALID,0,VALID,97.6255,VALID,0,VALID,18.6319,VALID,19,VALID,0,